FW9258 Weather Reports


Display with metric or nautical units.
time (UTC)temp
F
wind
direction
speed
MPH
gust
MPH
rain 1hr
in
rain 24hr
in
rain mn
in
humidity
%
barometer
mb
20260506092515 51 115 7.0 10.0 0.00 0.00 0.00 78 1015.3
20260506092017 52 15 5.0 9.0 0.00 0.00 0.00 80 1015.3
20260506091532 52 96 5.0 9.0 0.00 0.00 0.00 79 1015.1
20260506091014 52 309 1.0 8.0 0.00 0.00 0.00 81 1015.1
20260506090514 51 120 4.0 8.0 0.00 0.00 0.00 81 1015.1
20260506090032 51 117 3.0 8.0 0.00 0.00 0.00 81 1015.1
20260506085514 50 110 3.0 6.0 0.00 0.00 0.00 81 1015.2
20260506085015 50 105 3.0 8.0 0.00 0.00 0.00 81 1015.1
20260506084538 50 0 4.0 8.0 0.00 0.00 0.00 80 1015.2
20260506084016 51 91 1.0 9.0 0.00 0.00 0.00 81 1015.2
20260506083519 51 307 1.0 9.0 0.00 0.00 0.00 83 1015.1
20260506083034 51 110 4.0 6.0 0.00 0.00 0.00 83 1015.1
20260506082515 50 321 1.0 4.0 0.00 0.00 0.00 83 1015.2
20260506082016 50 310 0.0 5.0 0.00 0.00 0.00 83 1015.1
20260506081535 50 304 1.0 5.0 0.00 0.00 0.00 82 1015.0
20260506081021 50 309 2.0 5.0 0.00 0.00 0.00 82 1015.1
20260506080517 51 326 0.0 6.0 0.00 0.00 0.00 82 1015.0
20260506073037 49 338 0.0 1.0 0.00 0.00 0.00 84 1014.9
20260506072516 49 0 0.0 2.0 0.00 0.00 0.00 84 1015.0
20260506072019 49 0 0.0 3.0 0.00 0.00 0.00 85 1014.9
20260506071534 48 0 0.0 3.0 0.00 0.00 0.00 85 1014.9
20260506071015 48 340 0.0 5.0 0.00 0.00 0.00 85 1014.8
20260506070515 48 0 1.0 5.0 0.00 0.00 0.00 84 1014.8
20260506062517 47 346 2.0 5.0 0.00 0.00 0.00 85 1014.5
20260506062016 46 347 2.0 6.0 0.00 0.00 0.00 85 1014.5
20260506061535 46 356 3.0 6.0 0.00 0.00 0.00 85 1014.5
20260506061016 46 359 3.0 6.0 0.00 0.00 0.00 85 1014.5
20260506060518 46 349 4.0 6.0 0.00 0.00 0.00 85 1014.4
20260506051016 45 353 3.0 5.0 0.00 0.00 0.00 85 1014.3
20260506050518 45 357 4.0 5.0 0.00 0.00 0.00 85 1014.3
20260506045020 45 351 3.0 6.0 0.00 0.00 0.00 84 1014.2
20260506044536 46 354 4.0 6.0 0.00 0.00 0.00 84 1014.2
20260506044017 46 350 4.0 6.0 0.00 0.00 0.00 84 1014.2
20260506043520 46 351 4.0 6.0 0.00 0.00 0.00 84 1014.2
20260506043036 46 355 3.0 4.0 0.00 0.00 0.00 84 1014.3
20260506042518 46 348 3.0 5.0 0.00 0.00 0.00 84 1014.2
20260506042016 46 345 3.0 5.0 0.00 0.00 0.00 84 1014.3
20260506041535 46 347 3.0 4.0 0.00 0.00 0.00 84 1014.3
20260506041015 47 345 2.0 4.0 0.00 0.00 0.00 84 1014.3
20260506040515 47 342 1.0 4.0 0.00 0.00 0.00 83 1014.4
20260506040039 47 340 2.0 4.0 0.00 0.00 0.00 83 1014.3
20260506035518 47 343 2.0 4.0 0.00 0.00 0.00 84 1014.3
20260506035015 47 342 2.0 4.0 0.00 0.00 0.00 84 1014.4
20260506034530 47 340 1.0 4.0 0.00 0.00 0.00 84 1014.4
20260506034015 47 342 1.0 4.0 0.00 0.00 0.00 84 1014.5
20260506033514 47 340 2.0 4.0 0.00 0.00 0.00 84 1014.4
20260506033034 47 339 1.0 4.0 0.00 0.00 0.00 84 1014.4
20260506032516 47 0 1.0 4.0 0.00 0.00 0.00 84 1014.4
20260506032015 47 360 2.0 4.0 0.00 0.00 0.00 84 1014.5
20260506031530 47 338 1.0 4.0 0.00 0.00 0.00 84 1014.5
20260506031016 47 341 1.0 4.0 0.00 0.00 0.00 84 1014.4
20260506030519 47 339 1.0 4.0 0.00 0.00 0.00 83 1014.4
20260506030032 47 335 1.0 4.0 0.00 0.00 0.00 83 1014.4
20260506025516 47 341 2.0 4.0 0.00 0.00 0.00 83 1014.5
20260506025015 47 341 2.0 5.0 0.00 0.00 0.00 83 1014.4
20260506024534 47 348 2.0 5.0 0.00 0.00 0.00 83 1014.5
20260506024019 47 340 2.0 5.0 0.00 0.00 0.00 83 1014.5
20260506023515 47 347 2.0 6.0 0.00 0.00 0.00 83 1014.5
20260506023042 47 7 2.0 6.0 0.00 0.00 0.00 83 1014.5
20260506022515 47 349 2.0 5.0 0.00 0.00 0.00 84 1014.5
20260506022017 47 344 2.0 4.0 0.00 0.00 0.00 84 1014.5
20260506021535 47 338 1.0 4.0 0.00 0.00 0.00 84 1014.5
20260506021014 47 336 1.0 4.0 0.00 0.00 0.00 84 1014.5
20260506020515 47 340 2.0 4.0 0.00 0.00 0.00 84 1014.6
20260506020033 47 338 2.0 4.0 0.00 0.00 0.00 84 1014.6
20260506015515 48 340 1.0 4.0 0.00 0.00 0.00 83 1014.6
20260506015021 48 352 2.0 5.0 0.00 0.00 0.00 83 1014.6
20260506014534 48 338 2.0 5.0 0.00 0.00 0.00 83 1014.6
20260506014015 48 341 3.0 5.0 0.00 0.00 0.00 83 1014.6
20260506013515 48 349 3.0 5.0 0.00 0.00 0.00 83 1014.6
20260506013034 48 338 3.0 5.0 0.00 0.00 0.00 83 1014.6
20260506012516 48 344 3.0 5.0 0.00 0.00 0.00 83 1014.7
20260506012017 48 349 3.0 5.0 0.00 0.00 0.00 83 1014.6
20260506011533 48 341 2.0 5.0 0.00 0.00 0.00 83 1014.6
20260506011015 48 344 2.0 5.0 0.00 0.00 0.00 83 1014.7
20260506010515 48 341 2.0 6.0 0.00 0.00 0.00 83 1014.7
20260506010045 48 345 3.0 6.0 0.00 0.00 0.00 83 1014.8
20260506005514 48 343 2.0 6.0 0.00 0.00 0.00 83 1014.7
20260506005016 48 345 3.0 6.0 0.00 0.00 0.00 83 1014.8
20260506004530 48 341 2.0 5.0 0.00 0.00 0.00 82 1014.9
20260506004019 48 9 3.0 6.0 0.00 0.00 0.00 82 1014.9
20260506003515 48 345 2.0 6.0 0.00 0.00 0.00 82 1014.9
20260506003032 48 340 4.0 6.0 0.00 0.00 0.00 82 1014.9
20260506002514 48 340 3.0 5.0 0.00 0.00 0.00 82 1015.0
20260506002014 48 335 3.0 5.0 0.00 0.00 0.00 82 1015.1
20260506001532 48 340 2.0 4.0 0.00 0.00 0.00 83 1015.0
20260506001016 48 332 0.0 5.0 0.00 0.00 0.00 82 1015.0
20260506000516 48 335 0.0 5.0 0.00 0.00 0.00 82 1014.9
20260506000031 48 1 2.0 5.0 0.00 0.00 0.00 82 1014.9
20260505235515 48 352 1.0 4.0 0.00 0.00 0.00 82 1014.9
20260505235015 48 318 2.0 5.0 0.00 0.00 0.00 82 1014.9
20260505234554 48 331 2.0 5.0 0.00 0.00 0.00 82 1015.0
20260505234016 48 336 3.0 5.0 0.00 0.00 0.00 82 1015.1
20260505233515 48 330 1.0 4.0 0.00 0.00 0.00 82 1015.1
20260505233036 48 0 0.0 5.0 0.00 0.00 0.00 82 1015.1
20260505232515 48 296 2.0 5.0 0.00 0.00 0.00 82 1015.1
20260505232015 48 321 2.0 5.0 0.00 0.00 0.00 82 1015.1
20260505231534 48 311 2.0 6.0 0.00 0.00 0.00 82 1015.1
20260505231014 48 4 1.0 6.0 0.00 0.00 0.00 81 1015.1
20260505230515 48 327 2.0 6.0 0.00 0.00 0.00 81 1015.2
20260505230031 48 337 2.0 6.0 0.00 0.00 0.00 82 1015.2
20260505225516 48 314 3.0 8.0 0.00 0.00 0.00 82 1015.2
20260505225017 48 333 2.0 8.0 0.00 0.00 0.00 82 1015.2
20260505224533 48 332 3.0 7.0 0.00 0.00 0.00 82 1015.1
20260505224016 48 344 3.0 8.0 0.00 0.00 0.00 82 1015.2
20260505223523 48 321 4.0 8.0 0.00 0.00 0.00 82 1015.2
20260505223035 48 321 2.0 7.0 0.00 0.00 0.00 82 1015.3
20260505222518 48 320 3.0 7.0 0.00 0.00 0.00 82 1015.3
20260505222020 48 309 4.0 7.0 0.00 0.00 0.00 82 1015.3
20260505221610 48 313 4.0 7.0 0.00 0.00 0.00 82 1015.3
20260505221022 48 330 4.0 7.0 0.00 0.00 0.00 82 1015.2
20260505220515 48 314 4.0 8.0 0.00 0.00 0.00 82 1015.3
20260505220031 48 319 4.0 8.0 0.00 0.00 0.00 81 1015.3
20260505215519 49 297 4.0 8.0 0.00 0.00 0.00 82 1015.2
20260505215018 49 309 4.0 9.0 0.00 0.00 0.00 81 1015.3
20260505214559 49 333 5.0 9.0 0.00 0.00 0.00 81 1015.4
20260505214021 49 335 4.0 9.0 0.00 0.00 0.00 81 1015.3
20260505213517 49 315 5.0 9.0 0.00 0.00 0.00 81 1015.3
20260505213036 49 320 4.0 10.0 0.00 0.00 0.00 80 1015.4
20260505212518 49 340 6.0 10.0 0.00 0.00 0.00 80 1015.3
20260505212017 49 2 6.0 10.0 0.00 0.00 0.00 80 1015.4
20260505211532 49 357 5.0 10.0 0.00 0.00 0.00 80 1015.4
20260505211016 49 342 4.0 9.0 0.00 0.00 0.00 80 1015.4
20260505210519 49 331 5.0 9.0 0.00 0.00 0.00 81 1015.3
20260505210034 49 335 4.0 9.0 0.00 0.00 0.00 81 1015.4
20260505205516 49 319 2.0 8.0 0.00 0.00 0.00 81 1015.4
20260505205018 49 319 3.0 8.0 0.00 0.00 0.00 82 1015.5
20260505204537 49 319 3.0 7.0 0.00 0.00 0.00 82 1015.5
20260505204019 49 321 3.0 7.0 0.00 0.00 0.00 81 1015.4
20260505203518 49 342 3.0 8.0 0.00 0.00 0.00 81 1015.4
20260505203043 49 346 3.0 8.0 0.00 0.00 0.00 81 1015.4
20260505202518 49 338 4.0 8.0 0.00 0.00 0.00 81 1015.4
20260505202017 49 318 4.0 8.0 0.00 0.00 0.00 81 1015.5
20260505201537 49 344 5.0 8.0 0.00 0.00 0.00 81 1015.4
20260505201015 49 330 5.0 10.0 0.00 0.00 0.00 81 1015.4
20260505200516 49 321 5.0 10.0 0.00 0.00 0.00 80 1015.3
20260505200034 49 328 4.0 10.0 0.00 0.00 0.00 81 1015.2
20260505195521 49 315 5.0 9.0 0.00 0.00 0.00 81 1015.2
20260505195015 49 329 5.0 8.0 0.00 0.00 0.00 81 1015.2
20260505194540 49 310 6.0 10.0 0.00 0.00 0.00 81 1015.3
20260505194019 49 304 5.0 10.0 0.00 0.00 0.00 81 1015.2
20260505193519 49 309 5.0 8.0 0.00 0.00 0.00 81 1015.1
20260505193036 49 321 5.0 8.0 0.00 0.00 0.00 81 1015.0
20260505192518 49 315 5.0 10.0 0.00 0.00 0.00 80 1015.0
20260505192021 50 309 6.0 10.0 0.00 0.00 0.00 80 1014.9
20260505191536 50 331 5.0 11.0 0.00 0.00 0.00 79 1015.0
20260505191018 50 311 6.0 11.0 0.00 0.00 0.00 78 1015.0
20260505190515 50 311 6.0 11.0 0.00 0.00 0.00 77 1014.9
20260505190037 51 324 5.0 10.0 0.00 0.00 0.00 77 1014.9
20260505185517 51 338 6.0 13.0 0.00 0.00 0.00 76 1014.9
20260505185105 51 318 7.0 13.0 0.00 0.00 0.00 75 1014.9
20260505184535 52 309 7.0 12.0 0.00 0.00 0.00 74 1014.9
20260505184018 52 331 7.0 12.0 0.00 0.00 0.00 74 1014.9
20260505183517 52 319 8.0 13.0 0.00 0.00 0.00 73 1014.9
20260505183033 53 321 7.0 13.0 0.00 0.00 0.00 74 1014.9
20260505182519 53 330 7.0 13.0 0.00 0.00 0.00 74 1014.9
20260505182015 53 326 6.0 13.0 0.00 0.00 0.00 73 1014.9
20260505181533 53 314 6.0 12.0 0.00 0.00 0.00 73 1014.9
20260505181017 54 360 6.0 14.0 0.00 0.00 0.00 73 1014.7
20260505180518 54 316 7.0 14.0 0.00 0.00 0.00 72 1014.7
20260505180057 54 327 9.0 14.0 0.00 0.00 0.00 70 1014.7
20260505175521 54 322 8.0 15.0 0.00 0.00 0.00 71 1014.8
20260505175022 54 331 8.0 15.0 0.00 0.00 0.00 71 1014.7
20260505174553 54 316 8.0 13.0 0.00 0.00 0.00 70 1014.7
20260505174018 55 308 7.0 12.0 0.00 0.00 0.00 70 1014.7
20260505173519 55 342 7.0 12.0 0.00 0.00 0.00 71 1014.7
20260505173043 55 10 7.0 14.0 0.00 0.00 0.00 71 1014.8
20260505172515 55 334 8.0 15.0 0.00 0.00 0.00 71 1014.7
20260505172015 55 319 8.0 15.0 0.00 0.00 0.00 70 1014.7
20260505171534 55 326 9.0 13.0 0.00 0.00 0.00 70 1014.8
20260505171021 55 336 8.0 13.0 0.00 0.00 0.00 69 1014.9
20260505170515 55 317 8.0 16.0 0.00 0.00 0.00 70 1014.8
20260505170038 55 34 8.0 16.0 0.00 0.00 0.00 69 1014.9
20260505165518 56 352 9.0 15.0 0.00 0.00 0.00 69 1014.9
20260505165016 56 320 9.0 16.0 0.00 0.00 0.00 70 1014.9
20260505164533 56 309 8.0 16.0 0.00 0.00 0.00 72 1015.0
20260505164017 56 324 7.0 16.0 0.00 0.00 0.00 72 1015.0
20260505163520 56 333 8.0 16.0 0.00 0.00 0.00 71 1015.0
20260505163035 55 342 9.0 17.0 0.00 0.00 0.00 70 1015.0
20260505162516 55 356 8.0 18.0 0.00 0.00 0.00 73 1015.0
20260505162016 56 330 11.0 19.0 0.00 0.00 0.00 74 1014.9
20260505161537 56 347 11.0 19.0 0.00 0.00 0.00 72 1015.0
20260505161019 56 325 13.0 19.0 0.00 0.00 0.00 72 1014.9
20260505160516 57 314 9.0 17.0 0.00 0.00 0.00 71 1015.0
20260505153032 58 336 8.0 16.0 0.00 0.00 0.00 64 1015.0
20260505152516 58 319 9.0 15.0 0.00 0.00 0.00 67 1015.0
20260505152015 58 311 8.0 15.0 0.00 0.00 0.00 64 1015.0
20260505151534 58 339 8.0 15.0 0.00 0.00 0.00 63 1015.0
20260505151019 58 336 10.0 15.0 0.00 0.00 0.00 62 1015.0
20260505150520 58 348 7.0 14.0 0.00 0.00 0.00 64 1015.0
20260505140516 58 309 7.0 13.0 0.00 0.00 0.00 61 1015.1
20260505125015 58 313 8.0 13.0 0.00 0.05 0.00 62 1015.0
20260505124537 59 6 6.0 16.0 0.00 0.05 0.00 65 1015.0
20260505124016 58 23 8.0 16.0 0.00 0.05 0.00 64 1015.1
20260505123518 59 327 6.0 12.0 0.00 0.05 0.00 65 1015.1
20260505123034 58 324 8.0 13.0 0.00 0.05 0.00 64 1015.1
20260505122519 59 321 7.0 13.0 0.00 0.05 0.00 61 1015.1
20260505122022 59 321 6.0 12.0 0.00 0.05 0.00 66 1015.1
20260505121535 58 326 7.0 14.0 0.00 0.05 0.00 63 1015.1
20260505121019 58 331 8.0 14.0 0.00 0.05 0.00 66 1015.1
20260505120515 58 321 6.0 13.0 0.00 0.05 0.00 64 1015.1
20260505120038 58 338 8.0 13.0 0.00 0.05 0.00 63 1015.1
20260505115653 58 346 6.0 13.0 0.00 0.08 0.00 62 1015.1
20260505115015 58 329 7.0 13.0 0.00 0.08 0.00 66 1015.0
20260505114552 58 328 7.0 13.0 0.00 0.08 0.00 62 1015.1
20260505114021 58 329 7.0 13.0 0.00 0.08 0.00 63 1015.2
20260505113524 57 329 6.0 12.0 0.00 0.08 0.00 63 1015.2
20260505113031 57 2 7.0 12.0 0.00 0.08 0.00 63 1015.3
20260505112517 56 340 6.0 12.0 0.00 0.08 0.00 63 1015.3
20260505112015 56 329 5.0 10.0 0.00 0.08 0.00 68 1015.3
20260505111531 57 3 6.0 9.0 0.00 0.08 0.00 63 1015.3
20260505111017 57 321 6.0 15.0 0.00 0.08 0.00 64 1015.3
20260505110514 57 356 6.0 15.0 0.00 0.08 0.00 66 1015.2
20260505102017 56 345 7.0 13.0 0.00 0.08 0.00 65 1015.6
20260505101534 56 359 7.0 13.0 0.00 0.08 0.00 64 1015.7
20260505101017 56 320 7.0 13.0 0.00 0.08 0.00 64 1015.7
20260505100515 56 330 7.0 13.0 0.00 0.08 0.00 64 1015.7
20260505100031 56 338 4.0 12.0 0.00 0.08 0.00 69 1015.7
20260505095517 56 337 6.0 10.0 0.00 0.16 0.00 67 1015.7
20260505095016 56 338 2.0 8.0 0.00 0.16 0.00 70 1015.7
20260505094530 56 344 3.0 11.0 0.00 0.16 0.00 69 1015.7
20260505094015 56 358 4.0 11.0 0.00 0.16 0.00 69 1015.8
20260505093518 56 355 4.0 11.0 0.00 0.16 0.00 70 1015.7
20260505093037 56 335 4.0 11.0 0.00 0.16 0.00 68 1015.8